Wind_Speed
18 19 19 18 19 18 18 18 20 22 23 24 26 28 23 28 28 26 25 23 21 20 23 28 32 31 29 29 27 25 19 18
19 19 19 19 19 19 19 19 21 22 23 23 26 25 27 24 28 29 26 26 24 18 27 29 32 31 30 29 26 24 17 18
21 20 20 20 20 20 19 20 21 23 23 25 25 25 24 27 30 29 24 27 28 28 37 31 32 32 30 27 25 18 17 16
22 22 20 19 19 19 20 22 22 25 25 26 28 29 31 31 31 25 21 24 26 33 35 32 32 31 27 27 17 18 16 16
25 24 21 20 19 19 19 22 23 21 23 26 30 32 33 30 28 25 23 25 26 29 31 31 25 24 22 19 17 18 15 14
24 24 23 21 19 21 20 23 24 24 25 26 29 30 32 29 26 24 24 27 30 31 29 27 25 24 25 21 19 16 16 15
25 25 25 22 21 21 21 21 24 23 24 27 27 29 31 29 25 26 27 25 36 36 36 36 29 26 22 23 20 17 16 16
26 27 26 25 24 23 21 21 22 24 25 27 26 27 28 27 25 31 31 28 32 38 39 34 26 22 20 18 18 17 17 17
29 29 27 28 26 24 22 21 22 23 24 26 26 23 20 20 22 30 29 33 34 37 38 33 22 21 19 18 16 17 18 19
27 30 30 28 27 26 24 22 22 22 21 21 22 21 19 16 17 27 32 35 37 42 42 35 25 22 20 18 16 15 17 21
27 29 32 30 28 26 24 23 23 21 21 20 21 20 18 18 17 23 32 32 34 36 35 35 26 20 19 18 16 16 18 18
27 28 30 31 28 25 22 22 22 19 20 20 20 22 22 23 20 23 26 29 31 30 33 30 29 22 20 16 14 15 16 16
29 30 32 32 31 29 27 25 24 20 18 20 21 25 26 26 23 23 28 30 31 34 34 32 25 21 19 12 9 11 13 15
30 32 33 31 30 27 19 24 24 23 20 19 20 22 27 34 31 28 29 28 27 34 33 28 23 32 17 17 3 4 10 14
35 36 34 31 30 27 22 19 16 21 21 20 21 20 25 28 32 33 35 35 33 36 36 33 23 28 25 11 4 4 12 12
29 32 33 34 35 31 27 21 15 21 18 19 17 21 20 21 28 34 36 37 36 35 38 34 31 29 25 20 14 13 6 5
29 31 30 32 36 31 27 19 16 13 15 15 15 17 19 15 20 35 34 36 38 40 33 34 31 32 28 20 17 9 13 5
30 32 31 31 33 33 31 22 18 14 13 14 13 15 17 17 23 28 33 38 37 39 43 36 30 30 31 28 25 13 10 6
31 34 32 32 31 32 28 20 18 15 14 14 11 14 17 19 26 30 32 30 32 36 40 42 39 35 36 34 29 26 25 18
30 32 31 31 31 30 24 20 17 14 14 13 12 14 14 18 18 26 29 31 31 35 38 43 35 34 34 32 29 29 28 23
Wind_Direction
189 191 193 198 199 202 204 206 201 194 195 194 193 191 202 180 188 183 178 176 181 177 193 186 176 173 167 161 162 158 145 145
197 196 196 199 202 203 208 210 209 203 198 198 202 201 194 194 183 186 177 193 176 180 199 196 179 172 167 164 167 161 149 147
203 203 202 201 204 204 205 214 214 208 204 202 198 190 190 187 185 185 203 198 194 187 202 198 179 170 168 168 164 158 154 154
203 204 206 204 207 208 207 212 213 207 205 199 197 194 187 191 193 196 210 215 217 186 197 197 170 168 167 168 164 160 164 159
199 201 203 204 206 209 205 208 208 210 202 199 195 195 192 193 201 222 229 216 199 185 194 176 167 165 166 167 168 165 166 165
201 203 203 205 208 209 207 210 206 203 205 202 198 198 203 214 221 232 226 208 192 189 183 171 170 168 170 172 168 169 171 167
203 205 203 204 206 207 207 213 209 207 205 202 202 207 207 212 221 224 212 207 191 186 186 179 171 170 174 175 175 172 172 172
205 206 205 201 204 206 205 208 214 208 204 208 211 216 224 229 228 225 216 205 194 189 185 177 170 170 174 176 176 176 175 175
206 205 205 203 203 206 209 208 211 211 210 214 216 219 225 235 243 235 203 195 196 184 180 175 169 171 176 176 178 177 177 174
206 204 206 206 205 204 207 209 210 213 213 215 213 220 227 225 220 214 188 184 181 176 177 178 174 171 172 178 177 177 179 177
205 202 203 205 203 201 207 211 211 217 219 216 210 220 211 203 193 173 175 179 182 173 167 175 169 169 173 171 180 179 186 177
203 200 201 203 200 199 204 207 208 212 215 219 215 209 199 190 189 183 171 169 176 179 172 177 179 169 171 170 174 186 184 186
198 192 195 194 193 193 197 199 207 215 216 219 214 209 202 193 192 192 183 178 182 179 177 179 182 168 152 152 161 186 189 190
195 193 189 189 189 190 190 197 209 215 213 214 220 212 211 199 200 197 193 184 183 183 175 167 168 170 172 157 151 165 201 201
195 190 185 183 184 183 188 189 205 211 217 214 212 203 213 206 199 203 196 197 185 182 181 177 172 179 170 164 158 181 163 208
196 186 181 181 183 181 186 183 190 210 210 213 210 217 217 206 210 198 197 197 194 188 187 185 173 180 181 203 190 158 180 173
190 180 179 179 183 183 188 189 189 196 202 207 212 217 215 214 214 202 200 199 205 199 188 191 190 185 184 187 184 175 173 151
184 176 175 181 184 186 190 190 184 182 192 199 206 214 222 222 214 206 197 201 196 198 195 191 192 194 190 192 180 175 171 151
181 173 173 182 184 187 189 194 185 187 186 195 196 213 220 207 206 199 204 204 207 202 201 196 195 195 193 193 194 205 201 193
181 176 173 180 185 188 192 190 187 187 190 196 189 203 211 207 204 199 209 215 217 206 205 204 201 200 192 195 207 212 202 206
Height
767 769 772 775 776 779 783 786 787 790 793 795 798 801 801 804 809 813 816 820 823 824 830 831 832 833 837 840 843 846 850 852
766 768 770 773 775 777 780 784 787 789 791 795 797 800 802 806 809 812 815 818 819 825 828 830 832 835 838 840 844 847 852 854
764 768 769 771 774 775 778 782 785 788 790 793 796 799 802 807 809 810 811 815 815 816 822 827 831 835 840 842 846 850 853 855
762 765 768 770 773 774 775 779 782 785 788 791 794 797 800 804 807 809 813 815 816 814 820 825 831 836 841 843 848 850 854 856
758 761 764 768 771 773 774 777 779 784 786 789 791 795 798 801 804 807 810 813 815 816 822 827 833 836 841 844 847 851 854 857
755 758 762 765 768 772 772 774 777 780 783 786 790 794 797 800 802 804 805 809 813 815 821 826 830 834 839 843 847 851 855 857
751 754 758 762 765 769 770 772 774 777 780 784 787 790 793 796 798 801 803 806 807 812 817 822 827 833 839 842 846 850 855 858
747 749 753 757 761 765 768 770 773 775 778 782 785 787 789 792 794 796 799 802 805 809 813 819 827 833 839 844 847 851 854 858
741 745 750 753 756 761 765 767 770 774 776 779 781 784 786 788 789 791 791 797 802 808 811 818 828 833 839 844 848 851 854 857
738 741 745 749 752 757 761 764 767 771 774 776 778 781 783 785 786 785 787 791 798 803 809 817 826 832 838 843 848 852 854 856
732 736 739 745 750 753 758 761 765 768 770 773 776 779 781 784 785 785 786 790 796 800 806 815 824 832 839 843 848 851 856 857
726 731 735 741 746 750 754 758 762 765 767 769 773 776 779 783 784 786 787 789 797 802 808 816 822 829 838 844 848 853 855 857
718 724 728 735 740 744 749 752 757 761 764 767 770 772 776 780 782 786 789 790 794 802 809 816 823 830 838 845 848 852 854 856
710 715 721 728 735 740 745 748 754 758 761 764 767 770 773 775 779 782 786 791 794 800 807 815 821 824 831 840 847 852 853 854
698 704 712 722 730 737 741 746 751 755 757 760 764 766 769 772 772 778 781 788 793 797 804 810 816 822 824 828 840 842 848 852
696 701 707 715 724 730 735 737 744 748 753 756 760 763 766 767 772 773 779 782 789 794 800 806 809 815 821 824 828 830 837 846
691 696 704 711 718 724 731 736 740 745 749 753 756 759 762 766 768 770 775 778 784 788 796 803 805 808 812 818 822 827 829 834
686 690 698 708 714 719 726 731 736 742 746 749 752 755 758 761 764 768 770 774 778 784 790 796 801 806 809 812 814 820 824 829
680 682 691 702 710 716 722 729 732 738 742 746 748 752 754 756 760 763 768 772 777 781 785 789 795 799 803 808 811 815 820 825
674 677 686 697 705 712 720 726 730 735 740 744 746 750 752 754 758 760 764 769 773 777 781 783 790 796 798 802 808 816 816 819